Tracking 19817 objects as of 20-Aug-2019
HD Live streaming from Space Station
objects crossing your sky now

COSMOS 2251 DEB

Track COSMOS 2251 DEB now!
10-day predictions


NORAD ID: 38478
Int'l Code: 1993-036BTN
Perigee: 572.7 km
Apogee: 631.0 km
Inclination: 74.0 °
Period: 96.6 minutes
Semi major axis: 6972 km
RCS: 0.0048 m2 (small)
Launch date: June 16, 1993
Source: Commonwealth of Independent States (former USSR) (CIS)
Launch site: PLESETSK MISSILE AND SPACE COMPLEX (PKMTR)

Note: This is SATELLITE DEBRIS
aabbcc
Your satellite tracking list
Your tracking list is empty




NASA's NSSDC Master Catalog

Two Line Element Set (TLE):
1 38478U 93036BTN 19230.04608427 +.00001280 +00000-0 +13114-3 0  9991
2 38478 074.0120 119.6968 0041830 104.1416 256.4420 14.91034770356271
Source of the keplerian elements: AFSPC